FENGYUN 1C DEB

Satellite information

Favourite Embed

Satellite Type and Status

DEBRISIN ORBIT

Key statistics

Satellite FENGYUN 1C DEB at a glance.

Uptime

9718

Days in orbit

Revolutions

≈ 14.1

Per day

Orbit

SSO

Sun Synchronous Orbit

Inclination

99.1

Latest

Satellite identification and parameters

Extended collection of information and parameters for FENGYUN 1C DEB.

Object identification

Identified? True

Debris? True

Object name: FENGYUN 1C DEB

International designator: 1999-025AQA

Object number (NORAD): 30668

Object ID (CCSDS): 30668

Country: PEOPLES REPUBLIC OF CHINA (PRC)

Current information (Y/N): Y

RCS size: SMALL

Orbital parameters

Period: 101.958 minutes

Inclination: 99.1297 deg

SMA: 7229.508 km

Apoapsis: 908.503 km

Periapsis: 794.244 km

RAAN: 61.2268 deg

Eccentricy: 0.00790226

Argument of periapsis: 242.0168 deg

Mean anomaly: 178.7632 deg

Mean motion: 14.1234121 rev/day

Mean motion (dot): 0.0000414 rev/day2

B* drag term: 0.0022060072 1/REarth

Two-line elements (TLE)

Creation date: Dec. 14, 2025, 6:24 p.m.

Reference frame: TEME

Reference center: EARTH

Epoch: Dec. 14, 2025, 3:28 a.m. UTC

TLE line 0: 0 FENGYUN 1C DEB

TLE line 1: 1 30668U 99025AQA 25348.14457388 .00004140 00000-0 22060-2 0 9991

TLE line 2: 2 30668 99.1297 61.2268 0079023 242.0168 178.7632 14.12341210960751

Live tracking on map

Real-time ground track for satellite FENGYUN 1C DEB.

In-orbit conjunctions

A list of the most updated potential collisions computed for object FENGYUN 1C DEB.

Target Orbit TCA Probability of collision Miss distance Type
QUAKESAT SSO 2025-04-05 07:49:51 0.0005543513 518.0 (m) PAYLOAD
COSMOS 1275 DEB LEO 2025-03-25 10:36:02 0.0001135864 160.0 (m) DEBRIS
THORAD AGENA D DEB SSO 2024-11-14 22:22:14 0.00024406 459.0 (m) DEBRIS
FENGYUN 1C DEB SSO 2024-09-26 20:59:31 0.0005655133 116.0 (m) DEBRIS
METEOR 1-5 LEO 2024-09-22 22:11:07 0.000738426 114.0 (m) PAYLOAD

Associated space launch

Chinese polar orbiting meteorological satellite

FENGYUN 1C DEB was lifted into orbit during the mission ‘Long March 4B | Feng Yun 1C’, on board a Long March 4B space rocket.

The launch took place on May 10, 1999, 1:33 a.m. from Launch Complex 7.

For more information about the launch, click the button.

Launch to space Long March 4B | Feng Yun 1C
Long March 4B | Feng Yun 1C

Agency: N/A

Status: Launch Successful

Launch date: May 10, 1999, 1:33 a.m. UTC

Rocket: Long March 4B

Launch pad: Launch Complex 7

Location: Taiyuan Satellite Launch Center, People's Republic of China

...

Latest news about this satellite

There are no fresh news available about this satellite. Check back as we update our databases every day.


Newsletter sign-up

Weekly statistics, charts and insights to help you stay on top of the space industry.